Time,TemperatureF,DewpointF,PressureIn,WindDirection,WindDirectionDegrees,WindSpeedMPH,WindSpeedGustMPH,Humidity,HourlyPrecipIn,Conditions,Clouds,dailyrainin,SoftwareType,DateUTC
2013-03-17 00:00:00,5.4,-31.1,29.09,WNW,288,0.0,0.0,16,0.00,,,0.00,VWS V13.01,2013-03-17 05:00:00,
2013-03-17 00:05:00,5.4,-31.1,29.09,WNW,289,0.0,0.0,16,0.00,,,0.00,VWS V13.01,2013-03-17 05:05:00,
2013-03-17 00:10:00,5.4,-31.1,29.09,WNW,289,0.0,0.0,16,0.00,,,0.00,VWS V13.01,2013-03-17 05:10:00,
2013-03-17 00:15:00,5.4,-31.1,29.09,WNW,282,0.0,0.0,16,0.00,,,0.00,VWS V13.01,2013-03-17 05:15:00,
2013-03-17 00:20:00,5.7,-30.8,29.09,WNW,302,2.2,2.2,16,0.00,,,0.00,VWS V13.01,2013-03-17 05:20:00,
2013-03-17 00:25:00,5.5,-30.9,29.09,WNW,300,0.0,0.0,16,0.00,,,0.00,VWS V13.01,2013-03-17 05:25:00,
2013-03-17 00:30:00,5.5,-30.9,29.09,WNW,297,0.0,0.0,16,0.00,,,0.00,VWS V13.01,2013-03-17 05:30:00,
2013-03-17 00:35:00,5.5,-30.9,29.09,WNW,296,0.0,2.2,16,0.00,,,0.00,VWS V13.01,2013-03-17 05:35:00,
2013-03-17 00:40:00,5.5,-30.9,29.09,NNW,330,2.2,2.2,16,0.00,,,0.00,VWS V13.01,2013-03-17 05:40:00,
2013-03-17 00:45:00,5.5,-30.9,29.09,North,353,0.0,0.0,16,0.00,,,0.00,VWS V13.01,2013-03-17 05:45:00,
2013-03-17 00:50:00,5.5,-30.9,29.09,NNW,341,0.0,0.0,16,0.00,,,0.00,VWS V13.01,2013-03-17 05:50:00,
2013-03-17 00:55:00,5.4,-31.1,29.09,West,265,0.0,0.0,16,0.00,,,0.00,VWS V13.01,2013-03-17 05:55:00,
2013-03-17 01:00:00,5.4,-31.1,29.09,WNW,296,0.0,0.0,16,0.00,,,0.00,VWS V13.01,2013-03-17 06:00:00,
2013-03-17 01:05:00,5.4,-31.1,29.09,NNW,330,0.0,2.7,16,0.00,,,0.00,VWS V13.01,2013-03-17 06:05:00,
2013-03-17 01:10:00,5.4,-31.1,29.09,WNW,298,0.0,0.0,16,0.00,,,0.00,VWS V13.01,2013-03-17 06:10:00,
2013-03-17 01:15:00,5.0,-31.4,29.09,NW,310,0.0,0.0,16,0.00,,,0.00,VWS V13.01,2013-03-17 06:15:00,
2013-03-17 01:20:00,4.8,-31.5,29.09,WNW,282,0.0,0.0,16,0.00,,,0.00,VWS V13.01,2013-03-17 06:20:00,
2013-03-17 01:25:00,4.1,-32.1,29.09,West,270,0.0,0.0,16,0.00,,,0.00,VWS V13.01,2013-03-17 06:25:00,
2013-03-17 01:30:00,4.1,-32.1,29.09,WNW,282,0.0,0.0,16,0.00,,,0.00,VWS V13.01,2013-03-17 06:30:00,
2013-03-17 01:35:00,3.7,-32.4,29.09,WNW,291,0.0,0.0,16,0.00,,,0.00,VWS V13.01,2013-03-17 06:35:00,
2013-03-17 01:40:00,4.1,-32.1,29.09,NW,315,0.0,0.0,16,0.00,,,0.00,VWS V13.01,2013-03-17 06:40:00,
2013-03-17 01:45:00,3.7,-32.4,29.09,NW,306,0.0,0.0,16,0.00,,,0.00,VWS V13.01,2013-03-17 06:45:00,
2013-03-17 01:50:00,3.2,-32.8,29.09,NW,306,0.0,0.0,16,0.00,,,0.00,VWS V13.01,2013-03-17 06:50:00,
2013-03-17 01:55:00,2.8,-33.2,29.09,NW,306,0.0,0.0,16,0.00,,,0.00,VWS V13.01,2013-03-17 06:55:00,
2013-03-17 02:00:00,2.7,-33.3,29.09,NW,306,0.0,0.0,16,0.00,,,0.00,VWS V13.01,2013-03-17 07:00:00,
2013-03-17 02:05:00,2.3,-33.6,29.09,NW,306,0.0,0.0,16,0.00,,,0.00,VWS V13.01,2013-03-17 07:05:00,
2013-03-17 02:10:00,1.9,-33.9,29.12,NW,306,0.0,0.0,16,0.00,,,0.00,VWS V13.01,2013-03-17 07:10:00,
2013-03-17 02:15:00,1.6,-34.2,29.12,NW,306,0.0,0.0,16,0.00,,,0.00,VWS V13.01,2013-03-17 07:15:00,
2013-03-17 02:20:00,1.2,-34.5,29.12,NW,306,0.0,0.0,16,0.00,,,0.00,VWS V13.01,2013-03-17 07:20:00,
2013-03-17 02:25:00,0.7,-35.0,29.09,NW,306,0.0,0.0,16,0.00,,,0.00,VWS V13.01,2013-03-17 07:25:00,
2013-03-17 02:30:00,0.7,-35.0,29.09,NW,306,0.0,0.0,16,0.00,,,0.00,VWS V13.01,2013-03-17 07:30:00,
2013-03-17 02:35:00,0.7,-35.0,29.09,NW,308,0.0,0.0,16,0.00,,,0.00,VWS V13.01,2013-03-17 07:35:00,
2013-03-17 02:40:00,1.2,-34.5,29.09,NW,324,0.0,0.0,16,0.00,,,0.00,VWS V13.01,2013-03-17 07:40:00,
2013-03-17 02:45:00,1.9,-33.9,29.09,North,357,0.0,0.0,16,0.00,,,0.00,VWS V13.01,2013-03-17 07:45:00,
2013-03-17 02:50:00,2.8,-33.2,29.09,North,3,0.0,0.0,16,0.00,,,0.00,VWS V13.01,2013-03-17 07:50:00,
2013-03-17 02:55:00,3.2,-32.8,29.09,North,353,0.0,0.0,16,0.00,,,0.00,VWS V13.01,2013-03-17 07:55:00,
2013-03-17 03:00:00,3.9,-32.3,29.09,NNE,12,0.0,0.0,16,0.00,,,0.00,VWS V13.01,2013-03-17 08:00:00,
2013-03-17 03:05:00,4.5,-31.8,29.09,NNE,32,0.0,0.0,16,0.00,,,0.00,VWS V13.01,2013-03-17 08:05:00,
2013-03-17 03:10:00,4.3,-32.0,29.09,North,0,0.0,2.7,16,0.00,,,0.00,VWS V13.01,2013-03-17 08:10:00,
2013-03-17 03:15:00,4.5,-31.8,29.09,North,9,0.0,0.0,16,0.00,,,0.00,VWS V13.01,2013-03-17 08:15:00,
2013-03-17 03:20:00,4.5,-31.8,29.09,NNE,17,0.0,0.0,16,0.00,,,0.00,VWS V13.01,2013-03-17 08:20:00,
2013-03-17 03:25:00,4.5,-31.8,29.09,North,0,2.2,3.6,16,0.00,,,0.00,VWS V13.01,2013-03-17 08:25:00,
2013-03-17 03:30:00,4.3,-32.0,29.09,NNE,31,0.0,0.0,16,0.00,,,0.00,VWS V13.01,2013-03-17 08:30:00,
2013-03-17 03:35:00,4.5,-31.8,29.09,North,11,2.2,3.1,16,0.00,,,0.00,VWS V13.01,2013-03-17 08:35:00,
2013-03-17 03:40:00,4.5,-31.8,29.09,North,9,2.7,2.7,16,0.00,,,0.00,VWS V13.01,2013-03-17 08:40:00,
2013-03-17 03:45:00,4.1,-32.1,29.09,NNW,348,2.7,2.7,16,0.00,,,0.00,VWS V13.01,2013-03-17 08:45:00,
2013-03-17 03:50:00,4.1,-32.1,29.09,North,6,0.0,3.6,16,0.00,,,0.00,VWS V13.01,2013-03-17 08:50:00,
2013-03-17 03:55:00,3.7,-32.4,29.09,North,353,0.0,0.0,16,0.00,,,0.00,VWS V13.01,2013-03-17 08:55:00,
2013-03-17 04:00:00,3.4,-32.7,29.09,NNE,21,0.0,0.0,16,0.00,,,0.00,VWS V13.01,2013-03-17 09:00:00,
2013-03-17 04:05:00,3.9,-32.3,29.09,North,0,4.0,4.0,16,0.00,,,0.00,VWS V13.01,2013-03-17 09:05:00,
2013-03-17 04:10:00,3.7,-32.4,29.06,North,3,2.7,2.7,16,0.00,,,0.00,VWS V13.01,2013-03-17 09:10:00,
2013-03-17 04:15:00,3.6,-32.6,29.06,NE,34,0.0,2.2,16,0.00,,,0.00,VWS V13.01,2013-03-17 09:15:00,
2013-03-17 04:20:00,3.7,-32.4,29.06,North,5,0.0,2.2,16,0.00,,,0.00,VWS V13.01,2013-03-17 09:20:00,
2013-03-17 04:25:00,3.7,-32.4,29.06,NNE,30,2.7,2.7,16,0.00,,,0.00,VWS V13.01,2013-03-17 09:25:00,
2013-03-17 04:30:00,3.2,-32.8,29.06,NNE,20,0.0,0.0,16,0.00,,,0.00,VWS V13.01,2013-03-17 09:30:00,
2013-03-17 04:35:00,2.5,-33.5,29.06,NNE,14,0.0,0.0,16,0.00,,,0.00,VWS V13.01,2013-03-17 09:35:00,
2013-03-17 04:40:00,3.4,-32.7,29.06,NNE,19,3.6,3.6,16,0.00,,,0.00,VWS V13.01,2013-03-17 09:40:00,
2013-03-17 04:45:00,3.6,-32.6,29.06,NNE,15,2.7,4.0,16,0.00,,,0.00,VWS V13.01,2013-03-17 09:45:00,
2013-03-17 04:50:00,3.2,-32.8,29.06,NNW,339,0.0,0.0,16,0.00,,,0.00,VWS V13.01,2013-03-17 09:50:00,
2013-03-17 04:55:00,2.5,-33.5,29.06,NNE,32,2.7,2.7,16,0.00,,,0.00,VWS V13.01,2013-03-17 09:55:00,
2013-03-17 05:00:00,3.2,-32.8,29.06,NNE,32,2.7,2.7,16,0.00,,,0.00,VWS V13.01,2013-03-17 10:00:00,
2013-03-17 05:05:00,2.7,-33.3,29.06,North,10,0.0,2.2,16,0.00,,,0.00,VWS V13.01,2013-03-17 10:05:00,
2013-03-17 05:10:00,2.8,-33.2,29.06,NNW,344,2.2,3.1,16,0.00,,,0.00,VWS V13.01,2013-03-17 10:10:00,
2013-03-17 05:15:00,2.8,-33.2,29.06,North,2,2.7,4.0,16,0.00,,,0.00,VWS V13.01,2013-03-17 10:15:00,
2013-03-17 05:20:00,2.7,-33.3,29.06,North,5,0.0,0.0,16,0.00,,,0.00,VWS V13.01,2013-03-17 10:20:00,
2013-03-17 05:25:00,2.8,-33.2,29.06,NNE,24,0.0,3.6,16,0.00,,,0.00,VWS V13.01,2013-03-17 10:25:00,
2013-03-17 05:30:00,3.2,-32.8,29.06,NNE,33,2.2,4.0,16,0.00,,,0.00,VWS V13.01,2013-03-17 10:30:00,
2013-03-17 05:35:00,3.2,-32.8,29.06,NNE,31,2.2,3.6,16,0.00,,,0.00,VWS V13.01,2013-03-17 10:35:00,
2013-03-17 05:40:00,2.7,-33.3,29.09,NNE,19,3.6,3.6,16,0.00,,,0.00,VWS V13.01,2013-03-17 10:40:00,
2013-03-17 05:45:00,2.7,-33.3,29.09,North,8,0.0,0.0,16,0.00,,,0.00,VWS V13.01,2013-03-17 10:45:00,
2013-03-17 05:50:00,2.5,-33.5,29.09,North,0,0.0,0.0,16,0.00,,,0.00,VWS V13.01,2013-03-17 10:50:00,
2013-03-17 05:55:00,2.5,-33.5,29.09,NNE,23,3.1,3.1,16,0.00,,,0.00,VWS V13.01,2013-03-17 10:55:00,
2013-03-17 06:00:00,2.8,-33.2,29.09,NNE,30,3.1,3.1,16,0.00,,,0.00,VWS V13.01,2013-03-17 11:00:00,
2013-03-17 06:05:00,2.7,-33.3,29.09,NE,35,3.6,3.6,16,0.00,,,0.00,VWS V13.01,2013-03-17 11:05:00,
2013-03-17 06:10:00,2.7,-33.3,29.09,NNE,16,4.0,4.0,16,0.00,,,0.00,VWS V13.01,2013-03-17 11:10:00,
2013-03-17 06:15:00,2.5,-33.5,29.09,NNE,14,0.0,2.2,16,0.00,,,0.00,VWS V13.01,2013-03-17 11:15:00,
2013-03-17 06:20:00,2.1,-33.8,29.09,North,0,2.2,2.2,16,0.00,,,0.00,VWS V13.01,2013-03-17 11:20:00,
2013-03-17 06:25:00,2.3,-33.6,29.09,NNE,32,4.9,4.9,16,0.00,,,0.00,VWS V13.01,2013-03-17 11:25:00,
2013-03-17 06:30:00,2.5,-33.5,29.09,NNE,20,3.6,3.6,16,0.00,,,0.00,VWS V13.01,2013-03-17 11:30:00,
2013-03-17 06:35:00,2.3,-33.6,29.09,NNE,27,2.2,2.2,16,0.00,,,0.00,VWS V13.01,2013-03-17 11:35:00,
2013-03-17 06:40:00,1.9,-33.9,29.09,North,1,3.1,3.1,16,0.00,,,0.00,VWS V13.01,2013-03-17 11:40:00,
2013-03-17 06:45:00,2.1,-33.8,29.09,North,2,4.0,4.0,16,0.00,,,0.00,VWS V13.01,2013-03-17 11:45:00,
2013-03-17 06:50:00,2.1,-33.8,29.09,NNE,17,3.6,3.6,16,0.00,,,0.00,VWS V13.01,2013-03-17 11:50:00,
2013-03-17 06:55:00,2.3,-33.6,29.09,NNE,26,4.5,4.9,16,0.00,,,0.00,VWS V13.01,2013-03-17 11:55:00,
2013-03-17 07:00:00,2.1,-33.8,29.09,NNE,20,2.7,2.7,16,0.00,,,0.00,VWS V13.01,2013-03-17 12:00:00,
2013-03-17 07:05:00,2.3,-33.6,29.09,NNE,13,5.4,5.4,16,0.00,,,0.00,VWS V13.01,2013-03-17 12:05:00,
2013-03-17 07:10:00,2.3,-33.6,29.06,NNE,25,2.7,3.1,16,0.00,,,0.00,VWS V13.01,2013-03-17 12:10:00,
2013-03-17 07:15:00,2.3,-33.6,29.06,NNE,32,3.1,4.9,16,0.00,,,0.00,VWS V13.01,2013-03-17 12:15:00,
2013-03-17 07:20:00,2.1,-33.8,29.06,NNE,33,0.0,2.7,16,0.00,,,0.00,VWS V13.01,2013-03-17 12:20:00,
2013-03-17 07:25:00,1.8,-34.0,29.06,NNE,16,0.0,2.2,16,0.00,,,0.00,VWS V13.01,2013-03-17 12:25:00,
2013-03-17 07:30:00,2.3,-33.6,29.06,NNE,32,3.1,4.0,16,0.00,,,0.00,VWS V13.01,2013-03-17 12:30:00,
2013-03-17 07:35:00,2.5,-33.5,29.06,NNE,30,0.0,3.6,16,0.00,,,0.00,VWS V13.01,2013-03-17 12:35:00,
2013-03-17 07:40:00,2.8,-33.2,29.06,ENE,60,2.2,2.7,16,0.00,,,0.00,VWS V13.01,2013-03-17 12:40:00,
2013-03-17 07:45:00,3.6,-32.6,29.06,NE,40,2.7,4.0,16,0.00,,,0.00,VWS V13.01,2013-03-17 12:45:00,
2013-03-17 07:50:00,4.5,-31.8,29.06,NE,41,4.0,4.0,16,0.00,,,0.00,VWS V13.01,2013-03-17 12:50:00,
2013-03-17 07:55:00,5.2,-31.2,29.06,NE,44,3.1,4.9,16,0.00,,,0.00,VWS V13.01,2013-03-17 12:55:00,
2013-03-17 08:00:00,5.7,-30.8,29.06,NE,52,2.7,4.9,16,0.00,,,0.00,VWS V13.01,2013-03-17 13:00:00,
2013-03-17 08:05:00,6.3,-30.3,29.06,NE,54,2.2,5.4,16,0.00,,,0.00,VWS V13.01,2013-03-17 13:05:00,
2013-03-17 08:10:00,7.3,-29.4,29.03,NE,38,4.0,4.0,16,0.00,,,0.00,VWS V13.01,2013-03-17 13:10:00,
2013-03-17 08:15:00,8.1,-28.8,29.03,ENE,58,4.0,5.4,16,0.00,,,0.00,VWS V13.01,2013-03-17 13:15:00,
2013-03-17 08:20:00,10.4,-26.9,29.03,ENE,72,2.2,2.2,16,0.00,,,0.00,VWS V13.01,2013-03-17 13:20:00,
2013-03-17 08:25:00,9.3,-27.8,29.03,ENE,77,5.4,5.4,16,0.00,,,0.00,VWS V13.01,2013-03-17 13:25:00,
2013-03-17 08:30:00,9.5,-27.6,29.03,ENE,57,3.6,5.4,16,0.00,,,0.00,VWS V13.01,2013-03-17 13:30:00,
2013-03-17 08:35:00,9.7,-27.5,29.03,ENE,59,7.2,7.2,16,0.00,,,0.00,VWS V13.01,2013-03-17 13:35:00,
2013-03-17 08:40:00,9.0,-28.1,29.03,ENE,71,5.8,5.8,16,0.00,,,0.00,VWS V13.01,2013-03-17 13:40:00,
2013-03-17 08:45:00,8.6,-28.4,29.03,ENE,62,4.0,5.8,16,0.00,,,0.00,VWS V13.01,2013-03-17 13:45:00,
2013-03-17 08:50:00,9.5,-27.6,29.03,ENE,62,5.4,5.4,16,0.00,,,0.00,VWS V13.01,2013-03-17 13:50:00,
2013-03-17 08:55:00,10.9,-26.4,29.06,East,86,3.6,5.8,16,0.00,,,0.00,VWS V13.01,2013-03-17 13:55:00,
2013-03-17 09:01:00,12.2,-25.4,29.06,ENE,68,7.6,7.6,16,0.00,,,0.00,VWS V13.01,2013-03-17 14:01:00,
2013-03-17 09:06:00,13.8,-22.9,29.06,ENE,59,4.9,4.9,17,0.00,,,0.00,VWS V13.01,2013-03-17 14:06:00,
2013-03-17 09:10:00,15.4,-22.7,29.06,ENE,66,2.7,6.3,16,0.00,,,0.00,VWS V13.01,2013-03-17 14:10:00,
2013-03-17 09:15:00,12.2,-25.4,29.06,East,96,5.4,5.4,16,0.00,,,0.00,VWS V13.01,2013-03-17 14:15:00,
2013-03-17 09:20:00,14.5,-23.5,29.06,ENE,75,5.4,5.8,16,0.00,,,0.00,VWS V13.01,2013-03-17 14:20:00,
2013-03-17 09:26:00,14.9,-23.2,29.06,ENE,67,5.8,5.8,16,0.00,,,0.00,VWS V13.01,2013-03-17 14:26:00,
2013-03-17 09:31:00,14.9,-23.2,29.06,ESE,114,8.7,8.7,16,0.00,,,0.00,VWS V13.01,2013-03-17 14:31:00,
2013-03-17 09:35:00,16.0,-22.3,29.06,East,100,6.3,6.3,16,0.00,,,0.00,VWS V13.01,2013-03-17 14:35:00,
2013-03-17 09:41:00,12.7,-25.0,29.06,East,95,6.3,6.3,16,0.00,,,0.00,VWS V13.01,2013-03-17 14:41:00,
2013-03-17 09:46:00,15.8,-22.4,29.06,ENE,73,4.0,4.0,16,0.00,,,0.00,VWS V13.01,2013-03-17 14:46:00,
2013-03-17 09:51:00,15.1,-23.0,29.06,ENE,75,7.6,7.6,16,0.00,,,0.00,VWS V13.01,2013-03-17 14:51:00,
2013-03-17 09:56:00,15.8,-22.4,29.03,East,81,4.9,4.9,16,0.00,,,0.00,VWS V13.01,2013-03-17 14:56:00,
2013-03-17 10:01:00,15.6,-22.6,29.03,East,98,5.4,5.4,16,0.00,,,0.00,VWS V13.01,2013-03-17 15:01:00,
2013-03-17 10:06:00,15.6,-22.6,29.03,ESE,111,9.2,9.2,16,0.00,,,0.00,VWS V13.01,2013-03-17 15:06:00,
2013-03-17 10:11:00,15.3,-22.9,29.03,ESE,107,8.7,10.5,16,0.00,,,0.00,VWS V13.01,2013-03-17 15:11:00,
2013-03-17 10:16:00,16.7,-21.7,29.03,ENE,63,8.1,8.7,16,0.00,,,0.00,VWS V13.01,2013-03-17 15:16:00,
2013-03-17 10:21:00,18.1,-21.7,29.03,ESE,106,5.8,8.7,15,0.00,,,0.00,VWS V13.01,2013-03-17 15:21:00,
2013-03-17 10:26:00,18.7,-21.3,29.03,ESE,121,4.0,4.0,15,0.00,,,0.00,VWS V13.01,2013-03-17 15:26:00,
2013-03-17 10:31:00,18.1,-21.7,29.03,ESE,116,10.5,10.5,15,0.00,,,0.00,VWS V13.01,2013-03-17 15:31:00,
2013-03-17 10:36:00,16.9,-21.5,29.03,ESE,109,13.2,13.2,16,0.00,,,0.00,VWS V13.01,2013-03-17 15:36:00,
2013-03-17 10:41:00,18.3,-21.6,29.03,SE,126,8.3,10.1,15,0.00,,,0.00,VWS V13.01,2013-03-17 15:41:00,
2013-03-17 10:46:00,17.4,-21.1,29.03,SE,131,15.0,15.4,16,0.00,,,0.00,VWS V13.01,2013-03-17 15:46:00,
2013-03-17 10:51:00,19.2,-20.8,29.03,ENE,74,6.3,11.0,15,0.00,,,0.00,VWS V13.01,2013-03-17 15:51:00,
2013-03-17 10:56:00,18.1,-21.7,29.03,NE,46,8.3,8.3,15,0.00,,,0.00,VWS V13.01,2013-03-17 15:56:00,
2013-03-17 11:01:00,20.3,-20.0,29.03,ENE,62,4.5,8.7,15,0.00,,,0.00,VWS V13.01,2013-03-17 16:01:00,
2013-03-17 11:06:00,20.5,-17.4,29.03,SE,130,12.3,12.3,17,0.00,,,0.00,VWS V13.01,2013-03-17 16:06:00,
2013-03-17 11:11:00,19.8,-20.4,29.03,ESE,104,8.3,8.3,15,0.00,,,0.00,VWS V13.01,2013-03-17 16:11:00,
2013-03-17 11:16:00,18.5,-21.4,29.03,ESE,115,8.3,10.5,15,0.00,,,0.00,VWS V13.01,2013-03-17 16:16:00,
2013-03-17 11:21:00,18.1,-21.7,29.03,ESE,102,11.0,11.0,15,0.00,,,0.00,VWS V13.01,2013-03-17 16:21:00,
2013-03-17 11:26:00,18.0,-21.9,29.03,SE,128,8.1,11.0,15,0.00,,,0.00,VWS V13.01,2013-03-17 16:26:00,
2013-03-17 11:31:00,21.7,-18.8,29.03,SSE,159,7.6,8.1,15,0.00,,,0.00,VWS V13.01,2013-03-17 16:31:00,
2013-03-17 11:36:00,21.6,-16.5,29.03,SSE,147,8.7,11.0,17,0.00,,,0.00,VWS V13.01,2013-03-17 16:36:00,
2013-03-17 11:41:00,20.8,-17.1,29.00,ESE,120,11.0,11.0,17,0.00,,,0.00,VWS V13.01,2013-03-17 16:41:00,
2013-03-17 11:46:00,20.5,-17.4,29.00,SE,124,12.3,12.3,17,0.00,,,0.00,VWS V13.01,2013-03-17 16:46:00,
2013-03-17 11:51:00,20.5,-17.4,29.00,ESE,113,8.7,11.9,17,0.00,,,0.00,VWS V13.01,2013-03-17 16:51:00,
2013-03-17 11:56:00,19.9,-17.8,29.00,ESE,112,8.7,11.0,17,0.00,,,0.00,VWS V13.01,2013-03-17 16:56:00,
2013-03-17 12:01:00,20.7,-17.2,29.00,SE,142,8.7,8.7,17,0.00,,,0.00,VWS V13.01,2013-03-17 17:01:00,
2013-03-17 12:06:00,21.2,-16.8,29.00,SSE,154,8.7,15.4,17,0.00,,,0.00,VWS V13.01,2013-03-17 17:06:00,
2013-03-17 12:11:00,22.6,-15.6,28.97,SSE,156,8.7,10.1,17,0.00,,,0.00,VWS V13.01,2013-03-17 17:11:00,
2013-03-17 12:16:00,22.8,-15.4,28.97,SE,140,8.1,8.1,17,0.00,,,0.00,VWS V13.01,2013-03-17 17:16:00,
2013-03-17 12:21:00,21.9,-16.2,28.97,SE,139,10.5,10.5,17,0.00,,,0.00,VWS V13.01,2013-03-17 17:21:00,
2013-03-17 12:26:00,20.3,-17.5,29.00,SE,138,11.0,11.0,17,0.00,,,0.00,VWS V13.01,2013-03-17 17:26:00,
2013-03-17 12:31:00,22.5,-15.8,29.00,SSE,148,8.1,12.3,17,0.00,,,0.00,VWS V13.01,2013-03-17 17:31:00,
2013-03-17 12:36:00,20.8,-17.1,29.00,ESE,119,8.1,12.8,17,0.00,,,0.00,VWS V13.01,2013-03-17 17:36:00,
2013-03-17 12:41:00,21.9,-16.2,28.97,East,100,11.0,11.0,17,0.00,,,0.00,VWS V13.01,2013-03-17 17:41:00,
2013-03-17 12:46:00,22.3,-15.9,28.97,ESE,112,10.1,10.1,17,0.00,,,0.00,VWS V13.01,2013-03-17 17:46:00,
2013-03-17 12:51:00,23.5,-14.9,28.97,SE,130,5.8,7.6,17,0.00,,,0.00,VWS V13.01,2013-03-17 17:51:00,
2013-03-17 12:56:00,25.3,-14.6,28.97,SE,140,8.7,10.1,16,0.00,,,0.00,VWS V13.01,2013-03-17 17:56:00,
2013-03-17 13:01:00,24.4,-14.1,28.97,ESE,119,8.3,8.3,17,0.00,,,0.00,VWS V13.01,2013-03-17 18:01:00,
2013-03-17 13:06:00,25.0,-14.9,28.97,SE,125,10.5,10.5,16,0.00,,,0.00,VWS V13.01,2013-03-17 18:06:00,
2013-03-17 13:11:00,23.0,-15.3,28.97,ESE,117,8.3,10.5,17,0.00,,,0.00,VWS V13.01,2013-03-17 18:11:00,
2013-03-17 13:16:00,23.9,-14.6,28.97,East,98,5.8,5.8,17,0.00,,,0.00,VWS V13.01,2013-03-17 18:16:00,
2013-03-17 13:21:00,23.2,-15.2,28.97,SE,128,11.9,13.6,17,0.00,,,0.00,VWS V13.01,2013-03-17 18:21:00,
2013-03-17 13:26:00,23.9,-14.6,28.97,East,89,10.1,10.1,17,0.00,,,0.00,VWS V13.01,2013-03-17 18:26:00,
2013-03-17 13:31:00,23.7,-14.7,28.97,SE,125,8.7,8.7,17,0.00,,,0.00,VWS V13.01,2013-03-17 18:31:00,
2013-03-17 13:36:00,23.5,-14.9,28.97,ESE,113,10.1,10.1,17,0.00,,,0.00,VWS V13.01,2013-03-17 18:36:00,
2013-03-17 13:41:00,23.5,-14.9,28.94,SE,134,11.0,11.0,17,0.00,,,0.00,VWS V13.01,2013-03-17 18:41:00,
2013-03-17 13:46:00,25.3,-14.6,28.94,ESE,113,5.4,6.3,16,0.00,,,0.00,VWS V13.01,2013-03-17 18:46:00,
2013-03-17 13:51:00,23.7,-14.7,28.94,SE,125,8.1,10.5,17,0.00,,,0.00,VWS V13.01,2013-03-17 18:51:00,
2013-03-17 13:56:00,23.5,-14.9,28.94,ESE,112,8.7,11.0,17,0.00,,,0.00,VWS V13.01,2013-03-17 18:56:00,
2013-03-17 14:01:00,23.9,-14.6,28.94,ESE,116,7.6,8.7,17,0.00,,,0.00,VWS V13.01,2013-03-17 19:01:00,
2013-03-17 14:06:00,24.3,-14.3,28.94,SE,126,11.0,12.3,17,0.00,,,0.00,VWS V13.01,2013-03-17 19:06:00,
2013-03-17 14:11:00,23.7,-14.7,28.94,East,97,10.1,10.1,17,0.00,,,0.00,VWS V13.01,2013-03-17 19:11:00,
2013-03-17 14:16:00,25.7,-14.3,28.94,SE,135,8.3,8.3,16,0.00,,,0.00,VWS V13.01,2013-03-17 19:16:00,
2013-03-17 14:21:00,25.0,-14.9,28.94,ESE,104,5.4,8.3,16,0.00,,,0.00,VWS V13.01,2013-03-17 19:21:00,
2013-03-17 14:26:00,24.6,-14.0,28.91,ESE,122,8.7,11.0,17,0.00,,,0.00,VWS V13.01,2013-03-17 19:26:00,
2013-03-17 14:31:00,25.5,-14.4,28.91,East,88,5.4,8.3,16,0.00,,,0.00,VWS V13.01,2013-03-17 19:31:00,
2013-03-17 14:36:00,25.7,-14.3,28.91,ESE,110,7.2,7.6,16,0.00,,,0.00,VWS V13.01,2013-03-17 19:36:00,
2013-03-17 14:41:00,23.7,-14.7,28.91,ESE,107,10.5,12.8,17,0.00,,,0.00,VWS V13.01,2013-03-17 19:41:00,
2013-03-17 14:46:00,25.3,-14.6,28.91,ESE,104,6.3,7.6,16,0.00,,,0.00,VWS V13.01,2013-03-17 19:46:00,
2013-03-17 14:51:00,25.2,-14.7,28.91,ESE,103,5.4,5.4,16,0.00,,,0.00,VWS V13.01,2013-03-17 19:51:00,
2013-03-17 14:56:00,25.2,-14.7,28.88,East,85,10.1,10.1,16,0.00,,,0.00,VWS V13.01,2013-03-17 19:56:00,
2013-03-17 15:01:00,27.0,-13.2,28.88,ENE,61,6.3,6.3,16,0.00,,,0.00,VWS V13.01,2013-03-17 20:01:00,
2013-03-17 15:06:00,24.8,-13.8,28.88,ESE,102,12.8,12.8,17,0.00,,,0.00,VWS V13.01,2013-03-17 20:06:00,
2013-03-17 15:11:00,25.3,-14.6,28.88,ESE,118,8.7,8.7,16,0.00,,,0.00,VWS V13.01,2013-03-17 20:11:00,
2013-03-17 15:16:00,24.8,-13.8,28.88,East,98,8.1,8.7,17,0.00,,,0.00,VWS V13.01,2013-03-17 20:16:00,
2013-03-17 15:21:00,25.3,-14.6,28.88,SE,132,14.1,14.1,16,0.00,,,0.00,VWS V13.01,2013-03-17 20:21:00,
2013-03-17 15:26:00,26.8,-13.4,28.85,ESE,107,6.3,6.3,16,0.00,,,0.00,VWS V13.01,2013-03-17 20:26:00,
2013-03-17 15:31:00,28.2,-12.2,28.85,ESE,106,6.3,8.1,16,0.00,,,0.00,VWS V13.01,2013-03-17 20:31:00,
2013-03-17 15:37:00,27.3,-12.9,28.85,ESE,104,5.4,5.8,16,0.00,,,0.00,VWS V13.01,2013-03-17 20:37:00,
2013-03-17 15:42:00,26.8,-13.4,28.85,NE,49,4.0,4.9,16,0.00,,,0.00,VWS V13.01,2013-03-17 20:42:00,
2013-03-17 15:47:00,26.6,-13.5,28.85,SE,125,8.7,8.7,16,0.00,,,0.00,VWS V13.01,2013-03-17 20:47:00,
2013-03-17 15:52:00,25.7,-14.3,28.85,ENE,65,6.3,8.3,16,0.00,,,0.00,VWS V13.01,2013-03-17 20:52:00,
2013-03-17 15:57:00,25.9,-14.1,28.85,ESE,114,8.7,8.7,16,0.00,,,0.00,VWS V13.01,2013-03-17 20:57:00,
2013-03-17 16:02:00,25.5,-14.4,28.85,ENE,70,5.8,8.7,16,0.00,,,0.00,VWS V13.01,2013-03-17 21:02:00,
2013-03-17 16:07:00,26.6,-13.5,28.85,East,101,3.6,5.4,16,0.00,,,0.00,VWS V13.01,2013-03-17 21:07:00,
2013-03-17 16:12:00,25.9,-14.1,28.85,ESE,114,5.8,12.3,16,0.00,,,0.00,VWS V13.01,2013-03-17 21:12:00,
2013-03-17 16:17:00,25.9,-14.1,28.85,SE,124,8.7,11.9,16,0.00,,,0.00,VWS V13.01,2013-03-17 21:17:00,
2013-03-17 16:22:00,26.1,-14.0,28.85,ESE,109,7.6,8.3,16,0.00,,,0.00,VWS V13.01,2013-03-17 21:22:00,
2013-03-17 16:27:00,26.4,-13.7,28.85,ESE,110,5.4,8.3,16,0.00,,,0.00,VWS V13.01,2013-03-17 21:27:00,
2013-03-17 16:32:00,25.7,-14.3,28.85,ESE,112,12.8,12.8,16,0.00,,,0.00,VWS V13.01,2013-03-17 21:32:00,
2013-03-17 16:37:00,25.9,-14.1,28.85,SE,142,8.3,12.8,16,0.00,,,0.00,VWS V13.01,2013-03-17 21:37:00,
2013-03-17 16:42:00,26.1,-14.0,28.85,ESE,114,11.0,11.0,16,0.00,,,0.00,VWS V13.01,2013-03-17 21:42:00,
2013-03-17 16:47:00,26.2,-13.8,28.85,ENE,69,7.6,7.6,16,0.00,,,0.00,VWS V13.01,2013-03-17 21:47:00,
2013-03-17 16:52:00,25.5,-14.4,28.85,East,101,13.2,13.2,16,0.00,,,0.00,VWS V13.01,2013-03-17 21:52:00,
2013-03-17 16:57:00,25.9,-14.1,28.85,East,101,5.4,6.3,16,0.00,,,0.00,VWS V13.01,2013-03-17 21:57:00,
2013-03-17 17:02:00,25.5,-14.4,28.85,ESE,117,11.0,11.0,16,0.00,,,0.00,VWS V13.01,2013-03-17 22:02:00,
2013-03-17 17:07:00,25.5,-14.4,28.85,East,91,6.3,8.1,16,0.00,,,0.00,VWS V13.01,2013-03-17 22:07:00,
2013-03-17 17:12:00,25.5,-14.4,28.85,SE,126,12.3,12.3,16,0.00,,,0.00,VWS V13.01,2013-03-17 22:12:00,
2013-03-17 17:17:00,25.5,-14.4,28.85,SE,124,8.7,8.7,16,0.00,,,0.00,VWS V13.01,2013-03-17 22:17:00,
2013-03-17 17:22:00,25.5,-14.4,28.85,ESE,109,8.3,10.1,16,0.00,,,0.00,VWS V13.01,2013-03-17 22:22:00,
2013-03-17 17:27:00,25.9,-14.1,28.85,East,93,8.1,8.1,16,0.00,,,0.00,VWS V13.01,2013-03-17 22:27:00,
2013-03-17 17:32:00,25.7,-14.3,28.85,ESE,118,8.7,8.7,16,0.00,,,0.00,VWS V13.01,2013-03-17 22:32:00,
2013-03-17 17:37:00,25.5,-14.4,28.85,SE,132,8.7,10.1,16,0.00,,,0.00,VWS V13.01,2013-03-17 22:37:00,
2013-03-17 17:42:00,25.7,-14.3,28.82,ESE,107,8.1,10.5,16,0.00,,,0.00,VWS V13.01,2013-03-17 22:42:00,
2013-03-17 17:47:00,26.1,-14.0,28.82,ESE,102,8.3,8.3,16,0.00,,,0.00,VWS V13.01,2013-03-17 22:47:00,
2013-03-17 17:52:00,25.5,-14.4,28.82,ESE,120,11.0,11.0,16,0.00,,,0.00,VWS V13.01,2013-03-17 22:52:00,
2013-03-17 17:57:00,25.3,-14.6,28.82,East,86,4.9,10.1,16,0.00,,,0.00,VWS V13.01,2013-03-17 22:57:00,
2013-03-17 18:02:00,25.5,-14.4,28.82,ESE,111,8.3,8.3,16,0.00,,,0.00,VWS V13.01,2013-03-17 23:02:00,
2013-03-17 18:08:00,25.3,-14.6,28.82,ESE,104,10.1,10.1,16,0.00,,,0.00,VWS V13.01,2013-03-17 23:08:00,
2013-03-17 18:13:00,25.3,-14.6,28.82,ESE,108,12.8,12.8,16,0.00,,,0.00,VWS V13.01,2013-03-17 23:13:00,
2013-03-17 18:18:00,25.5,-14.4,28.82,ESE,121,6.3,10.5,16,0.00,,,0.00,VWS V13.01,2013-03-17 23:18:00,
2013-03-17 18:23:00,25.3,-14.6,28.82,East,101,5.8,8.7,16,0.00,,,0.00,VWS V13.01,2013-03-17 23:23:00,
2013-03-17 18:28:00,25.2,-14.7,28.79,ESE,103,8.1,10.1,16,0.00,,,0.00,VWS V13.01,2013-03-17 23:28:00,
2013-03-17 18:33:00,25.2,-14.7,28.79,ESE,118,10.1,12.3,16,0.00,,,0.00,VWS V13.01,2013-03-17 23:33:00,
2013-03-17 18:38:00,25.3,-14.6,28.79,ESE,105,8.7,10.1,16,0.00,,,0.00,VWS V13.01,2013-03-17 23:38:00,
2013-03-17 18:43:00,25.3,-14.6,28.79,SE,128,13.2,13.2,16,0.00,,,0.00,VWS V13.01,2013-03-17 23:43:00,
2013-03-17 18:48:00,25.3,-14.6,28.79,ESE,105,12.3,12.3,16,0.00,,,0.00,VWS V13.01,2013-03-17 23:48:00,
2013-03-17 18:53:00,25.3,-14.6,28.79,East,91,10.5,11.0,16,0.00,,,0.00,VWS V13.01,2013-03-17 23:53:00,
2013-03-17 18:58:00,25.2,-14.7,28.79,East,94,10.1,12.3,16,0.00,,,0.00,VWS V13.01,2013-03-17 23:58:00,
2013-03-17 19:03:00,25.2,-14.7,28.79,ESE,119,10.1,11.9,16,0.00,,,0.00,VWS V13.01,2013-03-18 00:03:00,
2013-03-17 19:08:00,25.2,-14.7,28.79,East,99,12.8,12.8,16,0.00,,,0.00,VWS V13.01,2013-03-18 00:08:00,
2013-03-17 19:13:00,25.2,-14.7,28.79,ESE,113,8.1,12.8,16,0.00,,,0.00,VWS V13.01,2013-03-18 00:13:00,
2013-03-17 19:18:00,25.2,-14.7,28.79,ESE,117,5.8,8.1,16,0.00,,,0.00,VWS V13.01,2013-03-18 00:18:00,
2013-03-17 19:23:00,25.2,-14.7,28.79,East,101,8.1,10.1,16,0.00,,,0.00,VWS V13.01,2013-03-18 00:23:00,
2013-03-17 19:28:00,25.2,-14.7,28.79,ENE,74,8.7,8.7,16,0.00,,,0.00,VWS V13.01,2013-03-18 00:28:00,
2013-03-17 19:33:00,25.2,-14.7,28.79,ESE,115,7.6,7.6,16,0.00,,,0.00,VWS V13.01,2013-03-18 00:33:00,
2013-03-17 19:38:00,25.3,-14.6,28.79,East,101,8.7,10.1,16,0.00,,,0.00,VWS V13.01,2013-03-18 00:38:00,
2013-03-17 19:43:00,25.3,-14.6,28.79,ESE,120,15.0,15.0,16,0.00,,,0.00,VWS V13.01,2013-03-18 00:43:00,
2013-03-17 19:48:00,25.3,-14.6,28.79,ESE,119,8.1,11.0,16,0.00,,,0.00,VWS V13.01,2013-03-18 00:48:00,
2013-03-17 19:53:00,25.3,-14.6,28.79,East,91,8.7,10.1,16,0.00,,,0.00,VWS V13.01,2013-03-18 00:53:00,
2013-03-17 19:58:00,25.3,-14.6,28.76,SE,124,7.2,8.1,16,0.00,,,0.00,VWS V13.01,2013-03-18 00:58:00,
2013-03-17 20:03:00,25.3,-14.6,28.76,ESE,118,7.6,10.1,16,0.00,,,0.00,VWS V13.01,2013-03-18 01:03:00,
2013-03-17 20:08:00,25.3,-14.6,28.76,ESE,116,5.8,5.8,16,0.00,,,0.00,VWS V13.01,2013-03-18 01:08:00,
2013-03-17 20:13:00,25.3,-14.6,28.79,ESE,115,4.0,8.1,16,0.00,,,0.00,VWS V13.01,2013-03-18 01:13:00,
2013-03-17 20:18:00,25.3,-14.6,28.79,SE,125,8.3,8.3,16,0.00,,,0.00,VWS V13.01,2013-03-18 01:18:00,
2013-03-17 20:23:00,25.2,-14.7,28.79,ESE,117,7.6,8.7,16,0.00,,,0.00,VWS V13.01,2013-03-18 01:23:00,
2013-03-17 20:28:00,25.2,-14.7,28.76,ESE,106,8.3,9.2,16,0.00,,,0.00,VWS V13.01,2013-03-18 01:28:00,
2013-03-17 20:33:00,25.0,-14.9,28.76,ESE,111,8.1,8.1,16,0.00,,,0.00,VWS V13.01,2013-03-18 01:33:00,
2013-03-17 20:38:00,25.0,-14.9,28.76,ESE,105,5.4,8.7,16,0.00,,,0.00,VWS V13.01,2013-03-18 01:38:00,
2013-03-17 20:43:00,24.8,-13.8,28.76,ESE,114,8.3,8.3,17,0.00,,,0.00,VWS V13.01,2013-03-18 01:43:00,
2013-03-17 20:48:00,25.2,-14.7,28.76,ESE,116,10.5,10.5,16,0.00,,,0.00,VWS V13.01,2013-03-18 01:48:00,
2013-03-17 20:53:00,25.3,-14.6,28.76,East,99,8.1,8.7,16,0.00,,,0.00,VWS V13.01,2013-03-18 01:53:00,
2013-03-17 20:58:00,25.3,-14.6,28.76,East,100,7.2,8.3,16,0.00,,,0.00,VWS V13.01,2013-03-18 01:58:00,
2013-03-17 21:03:00,25.3,-14.6,28.76,ESE,113,3.6,10.1,16,0.00,,,0.00,VWS V13.01,2013-03-18 02:03:00,
2013-03-17 21:08:00,25.3,-14.6,28.76,ESE,108,5.8,8.3,16,0.00,,,0.00,VWS V13.01,2013-03-18 02:08:00,
2013-03-17 21:13:00,25.3,-14.6,28.76,ESE,108,8.1,8.1,16,0.00,,,0.00,VWS V13.01,2013-03-18 02:13:00,
2013-03-17 21:18:00,25.3,-14.6,28.76,ESE,119,6.3,8.1,16,0.00,,,0.00,VWS V13.01,2013-03-18 02:18:00,
2013-03-17 21:23:00,25.7,-14.3,28.76,ESE,117,10.1,10.5,16,0.00,,,0.00,VWS V13.01,2013-03-18 02:23:00,
2013-03-17 21:28:00,25.7,-14.3,28.76,SE,126,8.7,8.7,16,0.00,,,0.00,VWS V13.01,2013-03-18 02:28:00,
2013-03-17 21:33:00,25.5,-14.4,28.76,ESE,114,6.3,8.1,16,0.00,,,0.00,VWS V13.01,2013-03-18 02:33:00,
2013-03-17 21:38:00,25.7,-14.3,28.76,ESE,103,11.0,11.0,16,0.00,,,0.00,VWS V13.01,2013-03-18 02:38:00,
2013-03-17 21:43:00,25.7,-14.3,28.76,SE,131,7.6,7.6,16,0.00,,,0.00,VWS V13.01,2013-03-18 02:43:00,
2013-03-17 21:48:00,25.7,-14.3,28.76,ESE,111,5.8,8.7,16,0.00,,,0.00,VWS V13.01,2013-03-18 02:48:00,
2013-03-17 21:53:00,25.7,-14.3,28.76,East,99,7.6,8.1,16,0.00,,,0.00,VWS V13.01,2013-03-18 02:53:00,
2013-03-17 21:58:00,25.7,-14.3,28.76,ESE,117,8.3,8.3,16,0.00,,,0.00,VWS V13.01,2013-03-18 02:58:00,
2013-03-17 22:03:00,25.7,-14.3,28.76,ESE,105,5.8,8.3,16,0.00,,,0.00,VWS V13.01,2013-03-18 03:03:00,
2013-03-17 22:08:00,25.9,-14.1,28.76,SE,133,8.3,11.9,16,0.00,,,0.00,VWS V13.01,2013-03-18 03:08:00,
2013-03-17 22:13:00,25.9,-14.1,28.76,ESE,116,9.6,11.0,16,0.00,,,0.00,VWS V13.01,2013-03-18 03:13:00,
2013-03-17 22:18:00,25.9,-14.1,28.76,East,100,12.8,12.8,16,0.00,,,0.00,VWS V13.01,2013-03-18 03:18:00,
2013-03-17 22:23:00,26.1,-14.0,28.76,ENE,74,8.3,8.3,16,0.00,,,0.00,VWS V13.01,2013-03-18 03:23:00,
2013-03-17 22:28:00,26.1,-14.0,28.73,ESE,122,10.5,12.3,16,0.00,,,0.00,VWS V13.01,2013-03-18 03:28:00,
2013-03-17 22:33:00,26.1,-14.0,28.73,ESE,122,8.7,8.7,16,0.00,,,0.00,VWS V13.01,2013-03-18 03:33:00,
2013-03-17 22:38:00,26.2,-13.8,28.73,ESE,118,13.2,13.2,16,0.00,,,0.00,VWS V13.01,2013-03-18 03:38:00,
2013-03-17 22:43:00,26.1,-14.0,28.73,ESE,116,8.1,10.1,16,0.00,,,0.00,VWS V13.01,2013-03-18 03:43:00,
2013-03-17 22:48:00,26.2,-13.8,28.73,SE,143,10.5,11.0,16,0.00,,,0.00,VWS V13.01,2013-03-18 03:48:00,
2013-03-17 22:53:00,26.2,-13.8,28.73,SE,127,5.8,10.5,16,0.00,,,0.00,VWS V13.01,2013-03-18 03:53:00,
2013-03-17 22:58:00,26.2,-13.8,28.73,SE,131,10.1,10.1,16,0.00,,,0.00,VWS V13.01,2013-03-18 03:58:00,
2013-03-17 23:00:00,26.2,-13.8,28.73,SE,137,8.3,11.0,16,0.00,,,0.00,VWS V13.01,2013-03-18 04:00:00,
2013-03-17 23:05:00,26.2,-13.8,28.73,ESE,105,10.5,10.5,16,0.00,,,0.00,VWS V13.01,2013-03-18 04:05:00,
2013-03-17 23:10:00,26.1,-14.0,28.73,ESE,106,8.7,9.6,16,0.00,,,0.00,VWS V13.01,2013-03-18 04:10:00,
2013-03-17 23:15:00,26.2,-13.8,28.73,ESE,120,10.5,12.8,16,0.00,,,0.00,VWS V13.01,2013-03-18 04:15:00,
2013-03-17 23:20:00,26.2,-13.8,28.73,ESE,108,9.2,10.5,16,0.00,,,0.00,VWS V13.01,2013-03-18 04:20:00,
2013-03-17 23:25:00,26.2,-13.8,28.73,SE,125,15.0,16.3,16,0.00,,,0.00,VWS V13.01,2013-03-18 04:25:00,
2013-03-17 23:30:00,26.4,-13.7,28.73,ESE,103,11.4,11.4,16,0.00,,,0.00,VWS V13.01,2013-03-18 04:30:00,
2013-03-17 23:35:00,26.8,-13.4,28.73,SE,142,12.8,16.3,16,0.00,,,0.00,VWS V13.01,2013-03-18 04:35:00,
2013-03-17 23:40:00,26.8,-13.4,28.73,East,99,13.2,13.2,16,0.00,,,0.00,VWS V13.01,2013-03-18 04:40:00,
2013-03-17 23:45:00,26.8,-13.4,28.70,SE,144,10.5,12.3,16,0.00,,,0.00,VWS V13.01,2013-03-18 04:45:00,
2013-03-17 23:50:00,26.8,-13.4,28.70,ESE,118,12.8,12.8,16,0.00,,,0.00,VWS V13.01,2013-03-18 04:50:00,
2013-03-17 23:55:00,26.8,-13.4,28.70,SE,129,15.0,15.0,16,0.00,,,0.00,VWS V13.01,2013-03-18 04:55:00,